Avoca, PA

6:29 PM EDT on September 23, 2017 (GMT -0400)
Wilkes-Barre-Scranton International

Weather History for KAVP - March, 2013

Change the Weather History Date:

Thursday, March 28, 2013

  Actual Average Record
Temperature  
Mean Temperature 39 °F 41 °F  
Max Temperature 44 °F 51 °F 83 °F (1945)
Min Temperature 34 °F 32 °F 9 °F (1923)
Degree Days  
Heating Degree Days 26 24  
Month to date heating degree days 856 803  
Since 1 July heating degree days 5080 5409  
Cooling Degree Days 0 0  
Month to date cooling degree days 0 0  
Year to date cooling degree days 0 0  
Moisture  
Dew Point 28 °F    
Average Humidity 69    
Maximum Humidity 89    
Minimum Humidity 49    
Precipitation  
Precipitation T in 0.10 in 1.62 in (2005)
Month to date precipitation 1.53 2.27  
Year to date precipitation 4.86 6.67  
Sea Level Pressure  
Sea Level Pressure 30.06 in    
Wind  
Wind Speed 9 mph (NW)    
Max Wind Speed 18 mph    
Max Gust Speed 25 mph    
Visibility 10 miles    
Events      
T = Trace of Precipitation, MM = Missing Value Source: NWS Daily Summary

Daily Weather History Graph

Daily Weather History Graph

Search for Another Location

Airport or City:

Trip Planner

Search our weather history database for the weather conditions in past years. The results will help you decide how hot, cold, wet, or windy it might be!

Date:

Astronomy

Mar. 28, 2013 Rise Set
Actual Time 6:52 AM EDT 7:23 PM EDT
Civil Twilight 6:24 AM EDT 7:51 PM EDT
Nautical Twilight 5:51 AM EDT 8:24 PM EDT
Astronomical Twilight 5:18 AM EDT 8:58 PM EDT
Moon 9:14 PM EDT (3/28) 7:17 AM EDT (3/28)
Length of Visible Light 13h 27m
Length of Day
12h 31m
Full, 98% of the Moon is Illuminated
Mar 28
Full
Apr 3
Last Quarter
Apr 10
New
Apr 18
First Quarter
Apr 25
Full

Hourly Weather History & Observations

Time (EDT) Temp. Windchill Dew Point Humidity Pressure Visibility Wind Dir Wind Speed Gust Speed Precip Events Conditions
12:05 AM 35.6 °F 29.2 °F 30.2 °F 81% 30.01 in 10.0 mi West 8.1 mph - N/A   Overcast
12:54 AM 35.1 °F 29.3 °F 30.0 °F 82% 30.02 in 10.0 mi WNW 6.9 mph - N/A   Overcast
1:52 AM 35.6 °F 30.7 °F 28.4 °F 75% 30.00 in 10.0 mi WNW 5.8 mph - N/A   Overcast
1:54 AM 35.1 °F - 30.0 °F 82% 30.01 in 10.0 mi Calm Calm - N/A   Overcast
2:54 AM 34.0 °F 28.0 °F 30.0 °F 85% 30.01 in 10.0 mi West 6.9 mph - N/A   Overcast
3:54 AM 34.0 °F 31.0 °F 28.0 °F 79% 30.00 in 10.0 mi SW 3.5 mph - N/A   Overcast
4:54 AM 35.1 °F 31.0 °F 27.0 °F 72% 30.00 in 10.0 mi Variable 4.6 mph - N/A   Overcast
5:10 AM 33.8 °F 28.6 °F 28.4 °F 81% 29.99 in 10.0 mi WNW 5.8 mph - N/A   Overcast
5:54 AM 34.0 °F 28.8 °F 28.0 °F 79% 30.01 in 10.0 mi WNW 5.8 mph - N/A   Overcast
6:54 AM 34.0 °F 29.8 °F 28.0 °F 79% 30.02 in 10.0 mi NW 4.6 mph - N/A   Overcast
7:54 AM 35.1 °F 28.6 °F 28.0 °F 76% 30.04 in 10.0 mi WNW 8.1 mph - N/A   Overcast
8:23 AM 35.6 °F 29.9 °F 28.4 °F 75% 30.02 in 10.0 mi Variable 6.9 mph - N/A   Overcast
8:54 AM 35.1 °F 29.3 °F 28.0 °F 76% 30.05 in 6.0 mi West 6.9 mph - 0.00 in   Haze
9:54 AM 36.0 °F 29.6 °F 28.9 °F 76% 30.06 in 10.0 mi WNW 8.1 mph - 0.00 in   Overcast
10:54 AM 37.9 °F 29.6 °F 28.9 °F 70% 30.07 in 10.0 mi NW 13.8 mph - N/A   Overcast
11:39 AM 39.2 °F 32.0 °F 30.2 °F 70% 30.05 in 10.0 mi NW 11.5 mph - N/A   Overcast
11:54 AM 39.9 °F 31.8 °F 30.0 °F 68% 30.07 in 10.0 mi WNW 15.0 mph - N/A   Overcast
12:43 PM 39.2 °F 31.2 °F 28.4 °F 65% 30.05 in 10.0 mi WNW 13.8 mph 20.7 mph N/A   Overcast
12:54 PM 39.9 °F 32.5 °F 28.9 °F 65% 30.07 in 10.0 mi NW 12.7 mph 19.6 mph N/A   Overcast
1:54 PM 42.1 °F 36.1 °F 27.0 °F 55% 30.06 in 10.0 mi North 10.4 mph - 0.00 in   Overcast
2:54 PM 43.0 °F 36.8 °F 27.0 °F 53% 30.06 in 10.0 mi NNW 11.5 mph 19.6 mph N/A   Overcast
3:54 PM 44.1 °F 38.1 °F 27.0 °F 51% 30.06 in 10.0 mi NNW 11.5 mph 20.7 mph N/A   Overcast
4:54 PM 44.1 °F 37.4 °F 26.1 °F 49% 30.07 in 10.0 mi WNW 13.8 mph 20.7 mph N/A   Overcast
5:54 PM 43.0 °F 36.4 °F 26.1 °F 51% 30.08 in 10.0 mi NW 12.7 mph 20.7 mph N/A   Overcast
6:54 PM 43.0 °F 36.0 °F 26.1 °F 51% 30.10 in 10.0 mi NW 13.8 mph 20.7 mph N/A   Overcast
7:54 PM 42.1 °F 35.7 °F 26.1 °F 53% 30.12 in 10.0 mi NNW 11.5 mph - N/A   Overcast
8:54 PM 41.0 °F 33.9 °F 26.1 °F 55% 30.14 in 10.0 mi NNW 12.7 mph 18.4 mph N/A   Overcast
9:54 PM 41.0 °F 34.7 °F 26.1 °F 55% 30.16 in 10.0 mi North 10.4 mph 18.4 mph N/A   Overcast
10:54 PM 39.9 °F 35.1 °F 26.1 °F 58% 30.17 in 10.0 mi North 6.9 mph - N/A   Overcast
11:54 PM 39.9 °F 33.9 °F 26.1 °F 58% 30.17 in 10.0 mi NNW 9.2 mph - N/A   Overcast